Theta_e
328 328 328 328 327 326 325 325 324 323 322 321 320 318 317 315 314 312 310 309 307 305 303 302 301 300 299 298 297 296 295 294 294 293 293 294 296 300 307 312 315 316 318 320 321 322 323 322 322 322 322 323 322 322 323 321 320 320 321 321 321 320 320 319 319 318 317 317 317 316 316 316 316 316 317 317 317 317 317 318 318 319 319 320 321
328 326 325 324 325 324 322 322 322 323 321 319 319 319 317 315 313 311 309 307 305 304 302 301 299 298 297 297 295 294 294 293 293 292 292 292 293 294 299 305 310 314 316 317 319 321 321 321 322 321 322 321 320 321 322 321 320 319 319 318 318 317 317 317 316 316 315 315 315 315 315 314 314 314 315 315 315 316 316 316 316 317 317 318 318
327 325 324 322 322 321 320 320 320 322 320 319 320 319 317 315 313 311 309 306 304 303 300 298 297 296 296 295 294 293 292 292 292 292 291 291 291 292 293 297 304 309 313 315 317 317 319 320 320 321 320 320 322 322 320 320 319 318 317 317 316 317 315 314 314 313 313 313 313 312 312 312 312 312 313 313 313 313 314 314 315 315 316 316 316
325 323 322 321 320 320 319 317 316 317 319 317 316 314 313 313 312 310 308 306 303 300 298 296 295 294 294 293 292 291 291 291 291 290 290 291 291 291 291 292 295 301 306 311 314 315 316 316 317 318 319 321 321 321 320 319 319 318 317 316 316 316 315 314 313 313 312 313 313 312 312 312 312 312 311 311 311 312 312 312 313 313 314 315 315
324 323 320 321 320 319 317 314 312 313 314 314 312 310 310 310 309 307 305 303 300 298 298 295 293 292 292 292 291 290 290 290 290 289 289 290 290 290 290 291 291 293 297 303 308 311 312 313 313 314 315 317 318 319 318 318 317 317 316 315 315 315 315 314 312 312 313 313 312 312 311 311 311 310 311 311 311 311 311 312 312 312 313 314 314
322 321 320 316 314 314 312 310 308 309 309 310 309 309 310 310 308 306 303 301 298 296 294 293 292 292 291 291 290 290 290 289 289 288 289 289 289 289 289 289 289 290 291 295 300 304 307 309 310 311 311 313 314 315 315 315 315 316 316 315 314 314 314 313 313 312 312 312 311 311 310 310 310 310 310 310 310 311 311 311 311 312 312 312 312
319 319 318 315 311 309 308 307 307 308 307 308 309 309 308 307 306 303 301 300 297 296 294 293 292 291 291 290 289 289 289 288 288 288 288 288 288 288 289 289 289 289 289 290 293 297 300 304 307 308 309 311 312 313 314 315 314 314 314 314 314 313 313 312 312 312 310 311 310 310 309 309 309 310 310 310 310 310 311 311 311 311 311 312 312
316 315 312 311 308 305 306 306 305 305 305 304 305 306 307 305 305 302 299 297 296 294 293 291 291 290 290 289 289 289 288 288 288 287 287 287 287 287 288 288 288 288 288 288 288 291 295 297 301 303 305 307 310 312 313 314 313 313 312 312 312 311 311 310 310 310 309 309 308 308 308 308 308 309 309 309 309 310 310 310 310 310 310 311 311
314 313 311 307 304 302 303 303 301 302 301 302 303 304 304 302 302 301 299 295 293 291 290 289 289 288 288 288 288 288 287 288 287 287 288 287 286 286 287 287 287 287 287 287 287 287 289 292 295 297 299 303 306 309 310 311 311 312 311 311 311 309 308 308 308 308 307 307 307 307 307 306 307 307 307 307 307 308 309 309 309 309 309 310 310
309 309 306 304 302 301 300 300 300 298 298 299 300 301 302 300 297 297 295 292 290 289 288 288 288 287 287 286 287 286 286 287 287 287 287 286 286 285 286 286 286 286 286 286 286 286 286 287 289 290 293 298 302 305 307 308 309 310 311 310 310 309 308 307 307 306 306 306 306 306 306 306 306 306 306 306 306 306 307 307 307 308 309 309 310
305 305 303 301 299 299 298 299 298 297 297 297 298 299 299 297 295 292 293 292 290 289 288 288 287 287 286 285 286 286 286 286 286 286 286 286 286 285 286 285 286 286 286 286 286 286 285 285 285 285 286 293 297 300 303 305 306 308 309 309 309 308 307 306 306 307 305 305 305 305 305 305 306 306 306 306 306 306 306 306 306 306 307 307 308
303 303 304 300 299 297 296 296 296 297 297 297 296 297 296 294 293 291 290 289 289 289 289 288 287 286 286 286 286 286 286 286 285 285 285 285 285 286 285 285 285 285 285 285 285 285 285 284 285 284 284 286 291 293 296 298 302 305 306 308 308 309 308 306 306 306 305 305 305 305 305 305 305 305 305 305 306 306 306 306 306 307 307 307 307
301 299 298 296 296 295 295 295 296 297 297 297 298 297 297 294 292 292 289 288 288 288 289 289 287 285 287 286 286 287 286 285 284 285 284 284 285 285 285 284 284 284 285 285 284 284 284 284 284 284 283 284 284 287 290 292 296 301 304 304 306 308 307 306 306 305 304 304 304 304 304 305 304 304 304 305 305 306 306 306 306 306 306 307 308
297 297 295 295 294 294 294 294 294 295 295 296 297 296 296 293 292 290 291 289 287 289 289 291 287 285 284 285 286 288 287 286 284 284 284 284 284 284 284 284 283 284 284 284 284 284 283 283 283 283 283 283 283 284 285 287 290 295 300 302 304 306 306 306 305 305 304 304 305 304 304 304 304 304 305 305 306 306 306 306 307 307 307 307 307
296 295 295 294 294 293 293 292 292 293 294 295 295 294 294 293 293 290 288 290 289 288 289 290 288 288 288 285 283 284 286 286 285 283 283 283 284 284 284 283 283 284 284 284 284 283 283 283 283 283 282 282 282 283 284 285 287 290 294 297 298 302 305 305 304 304 304 303 303 303 303 303 303 303 303 304 305 306 306 306 306 306 306 306 307
294 295 294 293 292 292 291 291 292 295 296 294 294 293 293 293 293 292 290 287 289 288 287 286 289 288 286 289 286 286 281 281 282 283 283 283 283 283 283 283 283 283 284 283 283 283 282 282 282 282 282 282 282 282 283 284 285 287 289 293 294 298 301 303 304 304 304 303 303 302 303 302 303 303 303 303 304 305 305 306 305 305 305 305 306
292 293 292 292 291 290 291 291 292 294 295 294 293 293 294 294 294 292 292 290 288 287 287 287 288 286 291 286 286 287 287 283 283 282 284 283 282 282 283 282 283 283 283 283 283 283 282 282 282 282 282 281 281 281 282 283 285 286 289 290 293 295 297 300 302 302 303 303 303 302 302 302 302 302 303 304 303 304 304 305 304 305 305 305 305
290 290 290 290 289 290 290 291 291 292 294 294 293 292 293 293 293 294 294 294 291 287 286 285 284 285 285 287 292 291 284 283 284 280 282 282 282 282 281 282 282 283 283 283 283 283 282 281 281 281 281 281 281 281 281 282 284 285 288 290 294 294 295 297 299 301 301 302 302 302 302 302 302 302 302 302 303 303 303 304 304 304 304 304 303
288 289 289 288 288 289 290 290 290 291 291 291 290 291 292 293 291 293 293 291 292 290 287 285 285 284 284 285 284 285 289 284 282 281 279 281 282 281 281 282 282 282 282 282 282 282 282 282 281 281 280 281 280 280 281 281 283 284 287 290 294 295 295 295 295 297 299 300 300 301 301 302 302 302 301 301 301 302 303 303 304 304 303 302 303
287 287 287 287 287 288 288 288 289 289 289 290 290 289 289 289 289 291 290 291 293 289 287 284 287 283 284 284 284 284 285 286 286 286 283 279 279 281 281 281 282 281 282 282 282 282 281 281 281 281 280 280 280 280 280 281 282 284 285 289 292 294 294 294 294 294 295 296 298 299 300 301 300 301 300 300 301 301 302 303 303 303 302 302 302
286 286 286 287 287 287 287 288 288 288 288 289 288 288 289 288 287 288 289 288 290 290 286 285 286 283 282 283 284 284 284 284 283 286 284 281 280 281 281 282 282 281 281 281 282 282 282 281 281 280 280 280 280 280 280 280 282 284 285 287 290 293 294 294 293 293 293 294 295 296 299 300 300 300 300 300 300 301 302 302 302 301 300 300 300
285 286 286 287 286 287 287 287 287 287 287 287 287 287 288 288 288 289 288 287 287 288 288 286 286 284 286 285 285 283 285 284 284 282 283 286 281 281 281 281 280 282 282 281 281 281 281 281 280 280 280 280 280 280 280 280 281 284 284 285 287 290 291 292 292 292 293 293 293 293 295 297 297 298 299 300 300 301 301 301 302 302 302 302 302
285 285 286 286 286 286 286 286 286 287 286 286 286 287 286 287 286 287 287 287 285 287 286 285 285 285 285 286 286 286 286 284 284 285 284 281 281 281 280 281 281 281 282 281 282 281 281 281 280 280 280 279 280 280 280 279 280 284 283 283 285 287 289 291 291 291 292 292 292 293 293 293 294 295 297 299 300 301 301 301 300 300 300 299 298
285 285 285 285 285 285 286 286 286 286 285 286 286 286 285 285 285 286 286 286 285 285 285 284 284 284 285 285 285 285 285 286 285 285 285 284 283 281 280 280 279 280 282 281 281 281 281 280 280 279 279 279 279 279 279 279 280 283 282 281 284 286 288 290 291 291 291 291 291 292 293 292 292 293 295 297 299 300 300 300 300 299 300 301 300
284 284 284 284 285 285 285 285 285 285 285 285 285 285 285 285 285 285 285 284 284 284 284 284 284 285 284 283 284 284 284 284 284 283 283 283 283 280 280 279 279 280 281 279 280 281 281 280 280 279 279 279 279 279 279 279 280 282 282 280 282 283 285 286 288 290 290 290 290 291 291 291 292 293 294 296 297 298 299 299 300 299 299 299 298
284 284 285 284 284 285 285 285 285 285 284 284 284 284 284 284 284 284 285 284 284 285 285 284 284 284 283 282 282 282 282 282 283 282 282 281 280 280 279 278 278 279 280 279 280 279 280 280 280 279 279 279 278 279 279 279 279 281 281 279 279 281 283 286 288 289 289 289 290 290 290 290 291 292 293 295 296 296 297 298 299 299 298 298 297
284 285 284 284 284 284 284 284 284 284 284 284 284 284 284 284 284 284 283 283 284 283 283 283 282 282 282 282 282 282 281 281 282 282 282 283 283 280 280 278 277 279 278 279 279 280 281 280 279 279 279 279 279 279 279 279 279 281 280 279 279 279 282 285 288 289 288 288 289 289 289 289 290 291 291 292 293 294 295 296 297 298 298 298 296
284 284 284 284 284 284 284 283 283 283 283 283 283 283 283 283 283 283 282 282 282 282 282 282 281 281 281 281 282 281 281 281 281 281 281 282 283 282 282 281 280 278 278 278 278 279 280 280 280 279 279 279 279 279 278 278 279 280 279 279 279 279 280 284 287 287 287 287 288 288 288 289 290 290 290 290 290 291 292 293 293 293 293 293 293
284 284 283 283 283 283 283 283 283 283 283 283 283 283 283 283 282 282 281 281 282 282 281 281 281 281 281 281 281 280 280 280 280 281 281 281 281 281 282 282 282 280 278 277 278 278 279 279 280 279 278 278 278 279 278 278 279 279 279 279 278 279 280 283 285 285 286 287 286 287 288 289 289 289 289 289 290 290 291 291 291 291 292 292 292
284 284 283 283 283 283 282 282 282 282 282 282 282 282 282 282 282 281 281 281 280 280 280 280 280 280 280 280 280 280 279 279 280 280 280 280 280 280 281 280 281 281 279 278 278 279 278 279 279 279 279 278 278 278 278 278 278 278 279 279 278 278 281 282 282 283 284 286 285 286 288 288 288 288 288 288 288 289 290 290 290 290 291 292 293
283 283 282 282 282 282 282 282 282 282 282 281 281 281 281 281 280 280 280 280 280 279 279 279 279 279 279 278 279 278 279 279 279 279 279 279 279 279 279 280 280 281 280 279 277 278 279 278 278 278 278 278 278 278 278 278 278 278 278 278 278 279 280 279 280 282 283 283 284 285 287 288 288 288 287 287 288 289 289 289 289 290 290 290 291
283 282 282 281 281 281 281 281 281 280 280 280 280 280 280 280 280 280 279 279 279 279 279 279 278 278 278 278 278 278 278 278 278 278 278 278 278 278 279 279 279 278 280 279 277 278 279 278 279 278 277 277 277 277 277 277 277 277 278 278 278 278 278 279 279 280 281 282 284 285 286 287 287 286 286 286 287 288 288 288 289 289 288 289 290
282 281 281 281 281 281 281 281 280 280 280 279 280 280 280 280 279 279 279 279 279 278 278 278 278 278 278 277 277 277 277 278 277 277 278 278 277 278 278 278 278 278 278 278 276 277 277 278 277 277 277 277 276 277 276 276 277 277 278 278 278 278 278 278 278 279 280 281 283 284 284 285 285 285 285 285 286 287 287 288 288 287 287 288 288
282 281 281 281 281 281 280 280 280 279 280 279 279 279 279 279 278 278 278 278 278 277 277 277 277 277 277 276 276 276 276 276 277 277 277 277 277 277 277 277 277 277 278 277 277 276 276 276 276 277 276 276 275 277 275 275 276 277 277 277 278 278 278 278 278 278 279 280 282 283 283 283 284 284 284 284 285 286 287 287 286 286 287 286 286
281 281 281 280 280 280 280 279 279 279 279 279 279 279 278 278 278 278 278 278 277 277 277 276 276 276 276 276 276 276 275 275 276 276 276 276 277 277 276 277 276 277 277 277 276 275 275 275 275 274 275 275 275 275 276 276 276 276 276 277 277 277 278 278 278 278 279 280 282 282 282 282 282 282 283 284 284 285 285 285 286 285 285 285 285
280 280 280 280 280 280 279 279 279 279 279 278 278 278 278 278 278 278 277 277 277 277 277 276 276 275 275 275 275 275 275 275 275 275 275 276 276 276 276 276 276 276 276 276 276 275 274 273 274 274 275 274 275 276 276 276 276 276 276 277 277 277 277 278 278 277 278 280 280 280 280 280 280 281 282 283 283 284 284 284 284 284 284 283 283
280 280 280 279 279 279 279 279 279 279 279 278 278 278 278 278 278 277 277 277 277 277 276 276 276 276 276 276 275 275 275 275 275 275 275 274 275 275 275 275 275 275 275 275 275 275 274 273 273 274 275 274 275 275 276 275 276 276 276 276 276 276 277 277 277 277 278 278 278 278 278 279 278 279 281 281 282 283 283 282 282 282 282 281 282
279 279 279 279 279 279 279 279 279 279 279 278 278 278 278 278 278 277 277 277 277 276 276 276 276 276 276 276 275 275 275 275 275 275 274 274 274 274 274 274 274 274 274 274 274 274 273 273 273 272 274 273 273 275 275 275 275 275 275 276 276 276 275 276 277 277 277 276 276 276 276 277 277 278 279 280 281 281 281 281 281 281 280 280 281
279 279 279 279 280 279 279 279 279 279 278 278 278 277 277 277 277 277 277 277 276 276 276 276 276 276 276 276 276 275 275 275 275 275 274 274 274 274 274 274 274 274 274 273 273 273 273 273 272 273 272 273 274 273 275 277 276 275 274 274 274 275 275 275 275 276 277 276 276 276 276 276 276 275 277 278 279 279 280 280 279 279 279 280 282
280 279 279 279 279 279 279 279 279 278 278 277 277 277 277 277 277 277 277 277 276 276 275 275 276 276 276 276 276 276 275 276 276 276 275 274 274 274 274 274 274 273 273 273 273 273 272 272 272 272 272 272 273 274 275 275 274 274 275 274 272 273 274 275 275 274 275 275 274 274 274 274 274 275 275 276 277 277 278 277 277 277 278 280 282
280 280 280 280 279 279 279 278 278 278 277 277 277 277 276 276 277 276 277 277 276 275 275 275 275 276 276 276 276 276 276 276 277 277 276 276 274 274 274 274 273 273 273 272 272 272 272 271 271 272 272 272 272 273 273 274 273 273 274 274 272 273 274 274 275 275 275 273 273 273 273 273 272 273 273 273 274 275 275 275 275 276 279 281 282
280 280 279 279 279 279 278 278 278 277 277 277 279 280 279 277 277 277 276 276 276 276 276 275 275 275 275 275 275 276 277 277 277 278 279 279 278 276 275 274 273 272 271 271 270 271 271 270 270 271 271 271 272 273 273 274 275 275 273 273 272 273 274 273 274 274 274 273 272 271 271 273 272 272 272 272 273 274 274 274 274 277 278 281 282
279 279 279 279 278 278 278 278 277 277 277 277 280 282 282 281 277 277 276 277 276 276 276 275 275 275 275 275 275 276 277 277 277 279 280 280 280 279 278 277 276 274 271 270 270 270 269 269 270 270 271 271 272 274 274 275 275 274 273 273 273 273 272 270 269 272 275 273 271 270 270 272 272 270 271 271 272 273 273 274 277 278 279 281 281
279 279 278 278 278 278 278 277 277 277 277 279 282 283 283 282 280 277 277 277 277 276 276 276 276 276 275 275 275 275 275 276 277 277 279 280 281 281 281 280 279 278 277 273 271 270 269 269 269 270 270 271 273 274 274 275 274 274 274 273 273 272 271 270 270 269 273 274 270 269 269 272 272 271 270 271 272 272 272 275 277 278 279 280 281
279 278 279 278 278 278 277 277 276 276 276 281 283 284 284 284 282 279 278 277 277 277 277 276 276 276 276 275 275 275 274 276 277 277 277 277 280 281 281 281 281 280 280 280 278 274 272 270 270 270 271 272 272 274 276 275 276 273 273 272 273 273 273 271 271 271 273 273 270 269 268 270 271 270 269 271 272 272 272 274 277 278 279 279 280
279 278 278 278 278 277 277 277 276 276 276 281 283 284 284 284 284 282 277 277 277 277 277 276 276 276 276 276 275 275 275 275 276 276 276 276 276 278 279 280 280 280 281 281 281 280 277 273 272 272 274 274 274 275 277 277 275 273 272 272 273 272 271 271 272 272 272 272 269 268 266 269 270 269 269 271 272 271 272 273 277 277 278 278 279
278 278 278 278 277 277 277 277 276 276 276 281 284 284 284 285 285 285 279 278 277 277 277 277 276 276 276 276 276 276 276 275 275 276 276 276 275 275 275 276 278 279 279 280 280 280 279 277 274 274 276 276 277 277 278 277 276 276 275 273 273 273 272 271 270 271 270 271 270 268 264 268 270 268 269 270 271 271 271 273 275 276 276 277 278
279 279 278 278 277 277 277 277 276 276 276 282 283 284 285 285 286 284 282 279 278 277 277 277 277 277 277 276 276 276 276 275 277 278 278 276 274 273 272 273 274 275 276 279 281 282 281 280 279 277 277 278 279 278 278 276 276 276 275 274 272 269 268 268 268 269 267 270 270 267 265 266 269 268 268 270 270 269 271 271 273 274 275 276 277
279 278 278 278 278 277 277 276 276 276 276 281 283 284 285 286 285 283 283 282 280 278 277 277 277 277 277 276 276 275 275 275 277 279 280 279 274 272 271 271 272 272 273 275 278 281 282 282 282 282 282 282 282 282 281 281 278 277 272 269 269 268 266 266 268 267 266 268 269 269 267 264 268 268 267 269 269 268 269 270 271 272 274 275 276
278 277 277 277 277 277 277 276 276 276 276 279 283 284 285 286 285 283 283 282 281 280 279 279 278 277 277 278 277 275 275 275 277 279 280 280 275 272 271 271 270 270 271 273 273 274 279 281 282 282 282 282 282 282 282 282 282 279 272 269 269 267 267 267 265 266 266 266 267 269 265 265 267 268 266 267 268 268 269 270 270 270 272 273 274
278 278 278 277 277 277 277 277 279 277 277 279 282 283 284 285 285 283 283 282 281 281 280 279 279 278 277 277 277 277 276 276 278 279 280 280 277 276 273 271 270 270 271 273 272 271 271 272 274 276 278 279 279 279 279 282 282 280 274 273 270 268 268 267 266 264 264 265 268 269 265 266 266 267 266 263 264 267 268 269 269 269 269 269 270
Wind_Speed
6 6 5 7 8 7 7 6 7 6 6 5 5 7 7 7 8 9 8 8 8 8 8 8 8 8 9 9 9 8 8 8 8 8 8 8 8 13 21 21 22 22 22 22 22 22 21 21 21 22 23 24 23 23 25 25 24 24 25 26 26 26 24 25 25 25 25 25 25 25 25 26 26 27 27 27 27 26 26 26 26 26 27 28 27
7 5 6 6 7 7 6 6 6 5 7 7 6 6 7 5 8 10 10 8 8 7 8 9 10 8 8 8 8 8 7 7 8 8 7 7 8 9 20 21 22 22 22 22 23 23 23 22 21 22 23 23 22 22 24 24 25 25 26 26 26 27 26 27 27 27 26 26 25 25 25 25 25 26 26 26 26 27 27 27 27 26 26 27 28
7 7 6 6 6 8 7 6 7 5 8 8 6 7 7 4 7 9 9 9 8 7 7 9 9 9 8 9 8 7 7 7 7 7 8 7 7 8 11 20 21 22 22 23 23 23 24 23 23 22 23 22 22 22 23 24 25 24 24 24 24 23 24 24 24 24 24 24 24 25 25 25 25 25 26 26 27 27 27 27 27 27 27 27 27
9 8 8 8 6 7 7 8 6 4 6 8 7 7 7 6 7 9 10 10 9 8 7 9 9 8 8 9 7 7 7 6 7 8 8 7 7 7 8 9 18 22 22 23 23 24 24 24 24 23 23 23 22 22 22 22 22 22 22 22 23 23 22 22 22 22 23 22 23 23 23 23 24 24 25 26 26 26 26 27 27 27 27 28 28
10 9 8 7 8 8 7 7 5 5 5 8 9 9 8 7 7 9 9 9 10 9 7 8 10 8 8 7 7 8 6 7 7 7 8 8 8 7 8 8 9 15 20 22 23 23 23 24 24 23 23 23 23 22 22 21 21 21 21 22 22 22 22 22 22 22 23 23 23 23 23 23 23 24 24 25 25 26 27 27 27 28 28 28 28
9 9 8 7 6 7 8 8 5 5 6 7 7 6 8 10 8 8 8 10 9 8 7 9 9 8 8 6 7 7 6 8 7 7 7 8 7 7 7 7 8 8 9 17 22 22 23 23 23 23 23 23 23 22 22 21 21 21 22 22 23 22 23 23 22 23 23 23 23 23 23 24 25 25 25 26 25 25 25 26 26 26 26 27 27
5 8 8 9 7 6 7 6 7 7 6 5 8 5 4 9 9 11 9 8 9 7 7 9 8 9 7 6 7 6 7 8 7 7 7 6 7 7 7 7 7 7 7 8 13 21 22 22 23 23 23 23 23 23 23 22 21 21 21 22 22 22 22 22 22 23 23 23 23 24 24 24 24 25 24 25 25 25 25 25 25 25 26 26 26
9 6 7 7 7 7 5 4 8 6 6 5 6 7 6 8 5 12 10 8 8 7 6 9 8 9 7 7 6 6 7 6 7 7 6 6 7 8 8 8 8 7 7 7 8 12 21 21 22 22 23 23 22 23 23 23 22 21 21 21 21 22 22 22 23 23 23 23 23 24 24 24 24 24 25 24 25 25 25 25 25 26 26 26 26
8 8 7 7 6 7 7 4 5 6 7 6 5 5 8 9 5 4 10 10 9 10 8 8 9 8 7 9 7 6 7 6 6 6 5 8 8 8 8 8 8 8 7 7 7 7 13 20 20 22 22 22 22 23 23 23 22 21 21 21 21 21 22 22 22 22 23 23 23 23 23 23 24 24 24 25 25 25 25 25 26 26 26 26 26
5 6 7 7 6 8 8 5 8 7 7 7 7 6 5 7 8 5 5 11 8 10 10 8 8 8 8 9 7 7 6 6 6 5 6 8 8 8 7 7 7 7 7 7 7 7 7 12 18 19 22 22 22 22 22 22 22 21 21 21 21 21 21 21 21 21 21 22 22 22 23 23 23 24 24 24 25 25 25 26 26 26 26 26 26
6 7 8 7 7 5 7 7 8 8 6 8 8 9 8 6 14 8 6 5 9 9 10 9 9 8 8 8 7 7 6 6 5 5 6 7 8 7 6 7 7 7 7 7 7 7 9 8 8 8 10 20 20 21 21 21 21 21 21 21 20 21 20 20 21 20 21 21 21 22 22 22 22 23 23 24 25 25 25 25 26 26 26 26 26
5 6 8 7 7 5 7 6 7 8 8 10 7 7 10 10 10 13 11 8 7 9 9 11 10 11 10 8 7 7 7 5 6 7 6 7 6 6 7 6 7 6 7 6 6 7 8 7 7 7 6 12 19 18 19 20 21 21 21 21 20 20 20 20 20 20 20 20 21 21 22 22 23 23 24 24 24 25 25 25 25 25 26 26 27
6 6 7 8 7 5 7 6 6 6 7 8 9 9 9 11 10 9 14 12 7 6 6 9 12 9 7 8 7 6 6 7 8 7 7 6 5 6 6 6 6 6 5 5 6 7 7 7 7 7 7 6 9 15 17 18 20 20 21 20 20 20 19 20 20 21 21 21 21 22 22 23 24 24 24 25 25 25 25 25 26 26 27 27 27
4 8 7 8 8 7 6 7 9 7 7 7 8 9 11 11 11 10 3 10 9 6 5 3 5 8 9 7 6 5 5 7 8 8 7 6 5 6 5 6 6 5 4 5 6 7 7 6 6 7 7 7 7 7 8 9 12 18 19 20 20 19 19 20 20 20 21 21 21 22 22 23 23 24 23 24 24 25 26 27 27 27 28 27 27
4 7 8 7 7 7 7 7 8 7 9 9 9 10 10 14 12 12 9 3 5 1 1 3 6 5 7 8 5 4 2 4 5 7 6 5 4 6 5 6 6 4 3 4 5 5 5 5 6 7 7 7 6 6 6 7 10 15 16 18 19 19 19 19 20 20 21 21 21 22 22 22 23 23 24 24 25 26 27 27 27 28 28 28 28
4 6 6 8 8 7 7 7 8 7 9 11 10 10 9 9 8 9 12 11 5 2 2 1 5 10 5 1 3 3 5 2 3 3 3 5 5 5 4 5 5 4 3 4 4 4 5 5 6 6 6 7 6 6 6 6 9 10 12 17 18 19 19 19 20 20 21 21 21 21 21 22 23 23 24 25 25 26 27 27 27 27 27 28 28
4 5 7 8 7 6 8 8 8 7 7 10 10 10 9 8 10 10 10 13 7 3 1 1 1 5 4 6 3 3 2 5 5 4 1 4 5 4 4 4 4 3 3 4 3 3 4 5 5 6 6 6 6 6 5 6 7 7 9 13 16 17 18 18 19 20 20 21 21 21 22 22 23 24 25 25 27 27 27 27 27 28 28 29 29
4 5 6 6 8 8 8 8 7 7 6 8 9 8 9 10 9 10 9 7 11 6 4 2 3 3 2 2 1 3 7 5 3 4 3 3 2 3 3 3 2 3 3 3 3 3 3 4 5 6 6 6 6 6 6 6 7 6 7 11 17 17 17 18 19 19 21 21 22 22 22 23 23 24 25 26 26 27 27 27 27 27 28 28 28
5 5 6 5 6 6 7 7 7 7 6 7 8 9 9 10 7 7 8 7 8 9 9 5 3 4 3 1 2 2 9 9 4 7 5 2 1 1 2 2 3 3 2 2 2 3 3 4 5 4 5 4 5 5 5 5 7 7 10 16 17 17 17 17 17 18 20 21 21 21 22 22 23 24 25 26 27 27 27 27 28 28 28 28 29
5 5 4 5 6 6 6 7 8 6 7 7 9 8 6 5 5 5 6 8 9 10 8 8 8 4 1 3 5 5 5 5 6 6 5 7 4 1 1 1 2 2 1 2 2 3 3 3 3 3 3 4 4 4 4 4 5 6 8 17 17 17 17 17 17 17 18 19 21 21 22 23 24 25 26 26 27 27 28 27 27 28 28 28 27
4 4 4 5 5 6 8 7 8 8 6 6 6 8 11 10 8 7 9 6 6 8 9 9 6 7 6 3 5 5 4 4 3 3 4 5 4 4 4 1 1 2 1 1 1 2 2 2 2 2 2 3 3 4 4 5 5 5 9 16 17 17 17 17 17 17 18 19 20 21 22 23 24 25 26 26 26 27 27 27 28 28 28 28 29
4 4 4 4 5 6 7 9 9 8 7 7 8 9 9 9 9 10 8 9 4 8 11 8 6 7 6 7 6 4 4 3 3 4 4 3 6 7 5 6 4 3 2 2 2 3 2 2 2 1 2 2 3 3 4 5 5 5 9 16 16 16 17 17 17 17 18 19 19 20 22 23 24 24 25 26 26 27 27 28 28 28 28 29 28
4 4 3 5 5 5 6 7 6 7 7 8 8 8 8 8 7 8 9 11 7 7 7 7 6 6 6 7 8 9 7 6 7 4 4 4 4 4 2 3 3 4 4 2 2 3 3 2 2 1 1 2 2 3 3 4 4 8 10 14 15 16 17 17 17 17 18 19 20 21 23 23 23 24 24 25 26 27 27 28 28 28 29 28 27
3 4 4 4 5 5 5 6 7 7 7 6 7 7 6 6 6 6 6 7 7 7 7 7 7 5 5 4 6 4 3 5 6 5 6 5 6 6 5 3 1 4 0 1 2 3 4 4 3 2 1 1 2 2 2 3 4 12 9 12 15 16 17 17 17 17 18 19 20 21 22 21 22 22 23 25 26 27 28 28 29 28 28 29 29
4 5 5 6 5 6 6 6 6 5 7 7 6 7 6 6 6 6 6 8 7 8 7 8 9 9 6 2 3 2 3 2 4 5 3 4 6 6 1 2 3 4 2 2 3 3 4 4 4 3 2 1 1 2 3 4 5 10 12 8 15 15 16 16 16 17 17 18 20 20 20 20 21 22 23 24 25 26 27 28 29 30 30 29 29
8 7 6 5 5 4 6 6 5 6 6 6 7 6 6 6 6 7 7 5 6 8 8 7 5 5 4 4 3 3 2 2 4 4 5 6 4 5 5 2 1 1 1 2 2 3 4 4 4 3 2 2 1 2 4 4 4 10 12 8 9 13 15 15 16 17 18 19 19 19 19 19 21 22 23 24 25 26 27 28 29 30 30 31 31
8 6 7 6 5 5 5 5 6 6 6 6 5 5 5 5 5 5 4 3 5 5 5 7 6 6 5 4 4 3 3 3 3 3 2 3 4 5 6 5 2 2 2 1 1 5 2 3 5 3 2 1 1 3 4 5 5 9 10 6 6 11 14 15 16 17 18 18 18 18 18 19 21 22 22 23 25 25 26 27 28 29 30 31 31
7 8 7 6 6 6 5 5 5 5 5 6 6 5 5 6 5 4 5 2 5 6 6 6 6 7 6 5 5 4 3 3 2 2 1 0 2 3 2 3 3 2 1 2 1 2 2 3 3 3 2 1 2 3 4 4 4 9 7 5 5 7 12 15 16 17 17 17 17 18 18 19 20 21 22 23 24 25 26 27 28 28 28 29 30
7 7 8 5 5 5 6 5 5 5 6 5 5 6 5 5 5 5 5 3 4 6 5 5 5 6 5 5 5 5 4 3 3 2 1 1 1 1 1 2 2 2 1 2 3 4 2 3 3 3 3 2 2 2 3 4 5 7 5 5 6 6 11 15 16 16 17 17 17 17 18 19 20 21 22 23 23 24 25 26 26 27 28 29 30
8 7 7 7 6 5 5 6 5 5 6 5 5 6 5 5 5 4 4 4 5 4 4 5 6 5 5 5 4 5 4 4 4 3 2 2 2 1 1 1 0 3 3 3 3 3 2 2 3 2 2 1 2 3 3 3 6 7 5 6 6 6 13 14 15 15 16 17 17 17 18 19 19 20 21 22 23 24 25 25 25 26 27 28 29
7 8 8 7 7 6 5 6 5 6 5 5 5 5 5 6 5 5 4 4 5 5 4 5 5 5 6 6 4 4 4 5 4 3 3 2 2 1 1 1 1 0 3 2 1 1 3 4 2 0 0 1 2 2 2 2 4 7 6 6 6 10 13 10 13 14 15 16 17 16 17 18 19 19 20 22 23 24 25 25 26 26 27 27 28
7 8 8 8 8 8 6 6 6 6 6 5 5 6 5 5 5 5 4 3 4 5 5 3 4 5 6 6 4 4 4 4 4 4 3 2 2 2 1 0 0 1 1 3 4 4 2 1 0 1 1 1 3 2 2 2 3 6 6 6 7 9 6 6 9 12 14 16 16 16 17 17 18 19 20 22 23 24 24 24 25 25 26 26 26
8 9 9 8 8 7 8 7 7 7 7 6 5 5 5 6 5 5 4 3 4 4 4 5 3 4 5 6 5 3 4 5 4 4 4 3 3 2 1 1 2 2 3 4 5 4 2 1 2 1 1 2 3 2 2 3 4 4 5 5 6 5 6 5 6 10 13 14 15 15 16 16 17 18 20 21 22 22 23 24 24 24 25 26 26
8 9 9 8 7 8 8 8 7 7 6 7 6 6 6 7 6 3 4 4 4 4 4 4 4 2 4 6 5 4 3 3 4 5 4 5 4 4 3 3 3 4 3 3 4 3 5 0 1 0 1 0 2 2 2 5 5 5 5 5 5 5 5 6 6 6 11 12 14 14 14 15 16 18 20 21 21 22 22 23 23 24 24 25 25
6 7 8 8 9 8 8 7 8 7 7 7 5 6 6 7 7 5 4 5 6 6 6 5 5 4 4 4 5 4 3 4 4 3 4 5 4 4 5 4 5 4 4 3 3 4 4 3 2 3 2 2 3 4 5 5 6 5 6 5 5 4 4 6 7 6 9 11 13 13 14 14 14 17 19 20 21 21 22 22 22 23 24 24 25
8 7 7 8 8 9 8 8 7 7 7 6 6 6 7 7 7 7 6 5 5 5 5 6 6 6 6 5 5 6 5 5 4 4 4 4 5 4 5 4 5 5 4 3 4 3 2 4 3 3 2 3 4 4 5 5 5 5 4 5 5 5 6 6 7 7 7 10 11 12 12 12 13 15 18 20 20 20 21 21 22 22 23 24 24
7 7 7 7 8 8 8 8 8 8 8 8 7 7 6 6 6 6 6 5 5 5 5 5 5 6 6 6 6 6 6 6 5 5 5 6 5 5 5 5 5 4 3 4 4 3 4 6 4 2 3 5 5 5 5 5 5 4 5 5 5 5 6 6 6 6 8 10 9 10 10 11 11 13 18 19 19 19 20 20 21 21 22 22 23
8 7 8 7 8 8 7 7 7 7 7 7 7 8 7 6 6 6 5 6 5 5 5 6 6 6 6 6 6 6 7 7 6 5 5 7 5 6 6 6 5 4 4 4 3 4 5 6 5 5 4 5 5 5 4 4 5 6 5 4 5 6 5 5 5 5 5 4 4 4 6 8 9 13 16 18 19 19 19 19 20 20 21 21 23
9 9 8 8 7 8 8 8 8 9 8 8 7 7 7 6 6 6 6 5 5 4 5 5 5 5 5 5 6 7 8 7 6 7 6 6 6 8 7 6 5 5 5 4 4 5 6 6 6 6 6 6 6 6 4 4 5 4 6 6 5 4 4 5 6 6 5 5 5 6 8 10 11 9 12 16 18 18 18 18 18 19 20 20 23
10 10 10 10 8 7 8 8 8 7 8 7 7 7 7 7 6 6 6 5 5 5 5 4 4 5 6 6 6 7 7 7 7 6 7 7 6 7 6 5 6 6 6 4 4 5 6 6 7 6 6 5 5 5 5 4 4 3 2 4 8 7 6 5 5 7 7 5 4 4 5 7 7 8 10 12 14 15 17 16 16 17 18 21 24
8 9 9 9 9 8 8 8 8 7 6 6 6 7 7 7 6 6 6 6 5 5 5 5 5 5 6 6 6 6 7 7 9 8 8 8 6 6 6 6 6 6 4 4 4 4 5 5 7 6 6 6 6 4 4 4 4 5 3 4 7 8 7 7 6 6 6 5 5 5 4 6 7 6 6 7 7 12 11 13 12 15 18 23 24
11 10 10 9 10 10 9 8 7 6 6 6 8 13 11 9 7 6 5 5 5 5 5 4 5 6 6 6 6 9 10 11 12 13 14 14 14 9 7 8 7 6 5 5 5 5 5 6 7 5 6 8 6 6 5 5 3 3 5 5 7 8 7 8 7 4 2 4 7 8 4 3 5 6 5 6 7 8 8 8 8 14 20 23 23
9 8 9 10 10 10 10 9 9 7 6 6 14 16 15 14 8 7 6 4 5 5 5 6 7 7 6 6 5 8 10 10 11 15 15 16 16 16 14 13 11 11 10 9 7 6 7 7 6 5 8 9 8 5 6 5 4 5 5 5 7 7 6 6 7 3 2 4 7 9 8 2 4 6 5 5 6 7 8 8 17 20 21 22 23
8 8 10 11 10 9 8 8 9 8 8 10 17 16 15 15 11 7 4 4 4 5 6 6 7 7 8 6 6 5 7 8 8 9 13 17 18 17 17 17 17 18 15 13 10 7 9 7 7 9 7 10 7 6 6 5 5 5 6 6 7 7 7 7 8 7 4 6 8 10 11 1 4 6 6 5 5 6 8 15 20 20 20 22 22
7 8 10 9 8 8 9 10 9 8 7 13 16 16 16 16 15 10 4 4 4 5 6 6 7 8 7 7 6 6 6 13 10 10 10 11 16 19 18 18 18 19 19 20 18 13 7 8 8 9 10 8 8 8 8 7 6 6 6 6 7 7 8 9 10 10 9 5 8 9 11 5 4 5 6 5 5 6 8 12 19 19 19 20 22
8 8 9 10 8 9 9 8 8 7 8 13 17 17 16 16 16 12 6 5 5 5 7 7 8 8 8 6 8 8 7 8 9 9 9 9 9 9 10 11 12 15 19 21 22 23 15 10 10 13 11 9 10 7 7 7 8 6 6 8 7 9 9 10 10 10 9 4 6 8 11 3 1 6 8 6 4 7 6 12 20 18 17 19 21
9 9 9 8 7 7 7 7 8 8 7 14 16 17 16 17 16 12 5 5 5 5 7 7 8 9 10 8 7 8 7 8 8 10 9 11 9 8 10 10 9 11 11 13 16 15 15 12 12 15 12 10 11 11 8 8 9 8 7 7 8 8 6 6 6 7 7 5 5 3 7 5 5 8 7 6 7 7 6 9 16 15 15 18 21
4 4 4 5 7 8 7 6 6 6 6 15 16 17 17 16 16 8 5 5 6 7 8 8 8 9 8 7 8 10 10 8 10 16 14 6 7 10 11 12 10 8 11 12 14 15 13 14 13 12 11 12 13 12 10 7 6 6 4 2 3 2 2 7 11 3 4 2 4 4 5 8 4 8 10 7 7 8 7 7 10 11 13 18 22
5 4 4 4 4 5 6 6 6 5 5 12 16 16 17 17 11 5 6 5 6 9 10 10 9 9 7 9 9 9 7 9 11 14 16 14 9 11 11 12 11 9 12 8 14 21 23 24 23 23 23 22 20 20 19 19 12 7 5 4 8 4 3 8 10 3 5 2 3 6 7 9 5 6 11 8 7 10 8 5 5 4 13 20 21
7 6 5 4 4 5 6 7 7 6 5 8 14 15 15 15 11 7 6 7 8 9 10 9 8 10 11 11 10 9 9 9 11 15 16 14 10 11 11 12 13 12 13 6 6 10 19 24 28 28 28 27 26 26 25 24 23 13 10 10 7 5 6 5 7 4 3 4 7 6 4 6 5 5 9 9 9 4 4 4 3 3 12 15 18
7 6 6 6 6 5 6 8 8 8 7 7 12 13 14 14 11 7 7 9 10 10 9 10 10 8 10 10 15 15 12 12 16 16 18 16 11 11 9 10 13 15 16 10 12 10 7 8 12 15 18 22 20 19 18 24 25 17 11 9 6 7 6 4 4 3 7 3 4 6 3 3 3 5 4 9 6 3 4 2 1 6 6 10 11
Wind_Direction
156 155 147 144 140 137 132 133 131 129 123 105 100 111 115 113 112 108 97 92 88 85 86 82 79 74 76 72 67 61 56 56 53 50 49 47 41 31 37 42 50 56 58 58 59 59 58 58 59 58 57 56 54 52 52 50 48 46 44 39 37 37 35 33 32 30 28 26 23 19 17 18 15 14 12 11 10 8 7 5 3 2 358 358 358
155 146 142 139 135 129 125 129 130 131 120 116 119 111 108 114 118 114 107 99 91 91 93 88 80 75 74 75 65 61 56 55 51 50 51 49 43 37 34 39 42 48 53 56 56 58 57 56 57 57 56 55 53 52 51 52 49 45 42 39 36 35 32 30 29 29 26 25 24 22 20 18 15 14 12 10 9 7 5 3 1 360 359 358 356
150 151 143 139 134 130 128 127 132 138 123 120 119 119 113 119 120 116 112 109 101 96 94 92 86 78 73 71 67 66 63 58 58 55 53 47 47 44 36 37 40 43 50 54 55 57 57 57 57 56 56 55 54 52 48 48 49 47 45 42 40 37 35 33 30 28 27 26 23 22 19 17 15 14 13 11 9 7 5 3 1 359 357 356 354
150 146 148 145 141 136 133 127 126 132 125 125 109 99 101 109 100 97 103 106 105 94 91 93 87 79 75 72 67 71 64 62 62 57 56 51 48 44 44 36 37 39 43 51 54 53 53 54 55 56 55 54 53 51 50 48 47 46 44 43 40 38 36 36 32 30 28 26 25 23 21 19 17 14 12 10 7 6 3 1 360 358 357 355 354
152 151 145 144 144 139 135 132 123 129 110 110 114 118 114 114 103 108 103 102 100 97 90 86 87 82 77 74 74 68 63 64 61 58 54 52 49 47 46 41 38 36 36 41 45 48 51 52 53 53 52 52 51 51 50 49 48 47 45 43 41 38 37 35 33 31 30 27 25 23 20 18 16 12 10 8 6 5 3 2 359 357 356 354 353
144 145 140 124 123 133 134 132 118 117 117 117 108 115 125 119 118 108 108 105 102 104 103 91 90 88 82 77 74 71 68 66 60 59 59 57 54 53 51 48 44 42 31 35 41 45 47 49 50 51 51 50 50 51 49 49 47 46 44 41 40 37 36 34 32 30 29 26 25 21 18 16 14 12 10 9 7 5 3 0 358 356 354 352 351
122 139 145 140 125 118 125 131 134 131 115 112 121 118 105 118 130 114 110 98 105 107 99 96 96 90 82 80 76 74 70 71 66 64 64 66 62 59 56 52 48 43 34 35 35 39 43 46 47 48 49 49 49 49 48 46 44 43 40 40 40 36 35 32 30 29 27 25 22 20 18 17 15 12 10 9 7 5 2 0 358 355 353 351 349
134 125 122 135 127 120 118 129 127 121 110 109 113 120 115 107 109 124 111 103 108 95 87 96 91 85 84 80 78 73 75 73 70 68 66 69 64 60 55 52 48 46 39 42 40 37 41 44 45 45 45 47 47 47 46 45 43 42 39 37 36 36 33 31 29 27 26 23 21 19 18 16 14 11 9 8 5 3 0 358 357 354 351 349 347
137 132 132 128 120 118 119 141 117 113 108 113 106 120 125 116 90 82 114 121 110 105 93 95 93 90 85 79 70 72 71 71 72 76 67 66 63 60 58 54 53 48 47 44 43 39 38 42 43 42 41 42 44 44 42 41 40 40 39 37 35 34 32 30 28 26 24 21 19 18 16 14 11 9 7 5 3 1 359 357 354 352 350 348 347
87 125 124 123 128 130 128 139 119 109 120 125 120 113 101 124 99 70 98 118 119 116 107 99 97 94 80 76 72 70 68 67 72 66 70 73 65 62 61 60 53 49 47 47 43 41 37 37 38 37 35 37 40 41 40 38 37 37 38 37 35 34 33 31 28 26 24 21 19 17 15 13 10 8 5 3 0 358 356 353 351 350 348 346 344
117 114 113 123 123 120 123 133 124 120 117 122 122 114 110 122 120 101 57 64 119 115 117 111 98 88 81 75 75 68 70 71 72 71 67 70 75 73 67 59 58 49 49 46 44 42 40 37 32 32 30 33 37 37 37 36 35 35 33 33 32 31 32 29 27 25 22 21 18 16 14 11 9 6 4 1 358 356 354 352 350 347 345 343 341
135 137 131 125 125 130 125 131 125 132 134 118 131 136 133 117 113 117 111 92 88 117 125 111 94 86 86 78 71 75 70 71 68 64 65 63 67 66 66 62 59 54 49 49 50 47 48 44 41 36 31 31 34 34 35 34 32 34 30 28 28 28 27 27 25 23 20 19 16 14 11 9 7 3 1 359 356 354 351 350 347 345 343 340 338
148 140 132 125 127 128 129 128 127 139 144 135 135 130 128 126 120 118 126 122 116 126 132 126 113 88 85 84 80 71 72 65 62 56 55 58 59 66 65 68 63 60 52 56 54 51 51 45 42 39 33 27 27 29 32 32 28 28 29 25 24 24 23 24 21 20 19 16 14 12 9 8 5 2 360 357 355 352 350 348 346 344 342 339 337
194 138 135 131 136 143 143 139 133 124 99 117 125 128 134 131 130 113 86 127 135 164 169 135 92 132 132 113 91 87 72 61 59 51 52 55 59 68 68 72 69 65 61 62 58 55 51 47 45 43 39 36 29 25 22 23 23 21 25 23 21 20 20 20 19 17 17 15 12 9 8 4 2 360 357 354 352 350 348 346 344 342 340 338 336
192 140 135 141 137 141 142 131 129 133 131 139 136 138 145 144 150 138 133 50 103 357 227 307 127 120 110 113 141 115 130 89 74 57 51 53 63 71 70 74 67 62 64 66 64 58 53 47 48 45 43 38 34 29 30 27 19 16 19 21 17 15 15 16 15 14 14 12 10 6 4 1 358 356 354 353 351 349 347 344 342 341 339 337 335
178 144 133 131 137 141 136 136 142 156 144 142 148 145 148 146 143 140 134 137 159 145 350 260 170 144 149 105 145 131 128 131 104 86 60 55 52 63 63 68 71 73 68 67 66 66 60 54 50 48 43 41 37 30 30 26 11 10 8 18 16 13 10 11 11 10 10 8 6 3 359 357 355 353 352 351 350 348 345 342 340 338 337 335 334
147 125 129 132 127 144 143 141 146 156 150 142 153 156 155 151 153 150 165 145 151 136 81 64 114 338 137 129 105 201 195 137 145 99 109 73 40 48 62 61 74 72 75 77 79 76 76 61 56 49 41 40 34 31 27 16 14 3 10 12 12 12 9 6 7 6 6 5 3 360 357 354 353 352 352 351 349 347 343 340 337 336 334 333 333
106 115 119 130 137 143 141 139 143 144 158 145 135 135 155 161 171 158 151 175 139 133 122 37 32 44 1 356 267 174 147 168 164 141 73 47 54 64 56 63 77 78 76 86 83 85 72 68 55 50 41 35 32 30 25 23 12 9 14 6 11 12 9 7 4 3 3 2 360 357 354 353 352 352 351 349 346 344 339 335 334 333 331 330 330
99 97 106 117 127 135 132 130 132 131 133 140 149 157 157 160 151 167 154 134 145 133 149 146 121 52 31 56 78 30 130 143 172 114 146 151 86 54 69 57 65 79 96 98 98 97 80 72 64 57 45 36 30 29 29 23 19 9 10 7 8 9 8 6 3 2 1 358 357 353 352 351 350 351 350 346 344 341 336 335 333 333 329 331 332
104 99 102 135 138 126 127 131 134 140 145 157 151 147 138 131 141 134 138 159 158 144 147 165 157 141 134 104 78 69 64 44 115 157 141 151 167 212 209 60 75 88 100 117 119 104 103 88 76 63 56 40 29 26 20 16 16 9 13 5 6 5 6 4 3 1 359 356 353 351 350 350 351 350 348 345 341 338 336 335 332 330 331 331 331
85 116 132 139 142 138 136 136 141 146 150 138 143 151 152 147 151 151 159 160 158 144 143 169 158 153 146 79 86 78 69 58 93 95 141 147 148 169 169 189 202 123 98 131 127 121 110 105 87 72 61 45 34 25 18 14 16 14 14 5 3 3 3 3 3 359 356 353 352 350 351 352 352 349 345 342 338 336 335 333 331 331 332 333 334
111 125 134 138 139 142 142 147 148 145 152 149 145 149 152 156 158 152 150 139 139 158 158 152 159 156 164 149 136 139 113 118 87 109 58 67 162 177 173 176 190 168 150 162 159 152 138 130 130 110 75 54 33 27 23 21 11 14 11 4 2 0 2 2 0 357 354 353 351 350 351 352 350 345 341 338 337 336 335 335 334 335 333 333 332
136 135 138 136 138 145 150 146 145 148 147 155 162 157 157 148 142 136 145 144 151 144 126 141 143 149 163 169 160 167 161 167 170 169 147 142 120 137 142 198 194 183 189 157 186 175 164 160 157 149 100 63 45 26 31 22 9 16 13 5 1 1 1 359 358 355 353 353 352 353 353 350 346 341 338 337 337 337 337 336 335 334 334 332 335
138 142 152 151 149 149 150 144 152 152 155 153 148 150 142 138 141 148 138 129 133 141 138 142 153 146 160 170 143 128 110 155 159 146 154 159 151 148 157 148 257 235 218 249 181 186 183 179 177 166 151 102 49 30 28 21 24 15 12 3 1 359 357 356 356 354 353 354 353 353 351 346 341 338 338 337 338 337 337 337 334 335 335 336 334
177 169 171 171 158 156 158 159 153 158 142 146 144 142 142 143 138 136 143 152 156 152 151 158 159 158 155 98 102 124 130 79 114 130 74 101 128 125 129 176 184 173 177 181 189 193 200 193 180 189 169 126 69 37 25 32 25 15 11 358 357 356 352 352 354 353 355 354 353 351 347 341 337 338 339 338 339 338 337 336 334 335 336 335 333
167 186 167 167 173 165 154 146 131 136 146 140 137 138 138 135 137 140 148 140 140 149 131 129 103 83 98 115 119 115 101 93 102 111 132 129 148 148 140 167 231 183 161 217 183 196 174 195 189 187 179 139 89 36 35 28 25 12 9 353 348 349 347 348 351 354 357 354 350 345 340 337 337 339 339 339 339 338 337 336 334 334 334 333 333
173 160 152 171 162 152 154 140 142 141 137 132 126 124 120 116 118 116 109 129 125 119 113 116 112 119 112 115 118 93 84 80 96 100 111 145 142 155 150 145 163 191 200 202 232 247 165 157 179 185 174 129 71 50 32 27 11 4 0 351 338 337 342 344 349 355 356 351 345 340 335 334 338 340 341 340 339 337 336 335 333 333 332 331 329
146 145 151 160 156 147 139 134 130 131 124 121 121 118 115 113 109 115 110 83 119 113 119 115 117 121 119 127 113 103 91 94 79 84 105 117 130 141 146 148 157 195 180 248 224 237 158 185 155 180 167 116 70 44 46 25 12 352 351 345 335 329 336 342 349 353 351 346 340 335 331 334 338 340 341 339 338 336 334 333 332 331 328 327 326
144 142 142 149 145 141 137 132 130 122 115 110 109 107 108 112 119 120 112 115 114 119 120 117 117 120 119 126 116 120 115 111 106 103 95 96 74 69 21 158 162 169 188 229 227 210 198 202 214 149 156 89 40 40 36 28 357 346 334 330 329 324 331 342 348 349 343 339 335 331 330 334 339 340 340 339 337 334 332 331 330 328 327 327 326
142 144 138 141 136 140 136 134 125 115 113 111 108 110 112 111 111 100 102 121 114 103 106 117 123 118 111 111 120 114 125 123 119 116 106 97 102 70 40 21 90 185 186 207 248 190 191 196 233 179 161 89 38 22 40 16 343 335 327 325 323 322 332 340 342 339 335 331 327 328 330 336 339 340 339 337 335 333 331 330 329 328 328 328 328
142 142 141 143 144 138 142 136 128 118 112 113 115 114 118 116 110 109 121 134 125 119 125 126 129 128 126 118 119 116 129 123 121 116 105 108 104 102 66 19 329 298 169 167 227 238 175 214 174 6 358 32 37 5 10 1 334 328 320 314 312 325 331 330 330 329 325 323 321 325 331 336 339 339 337 335 333 332 330 329 330 329 329 328 328
154 144 146 151 149 146 144 136 128 122 121 119 122 120 120 113 119 123 131 131 122 120 124 118 128 131 127 123 135 138 142 130 125 124 126 115 112 122 112 117 320 291 168 193 220 228 149 252 320 180 131 334 348 352 340 318 303 306 305 300 313 321 327 322 316 315 314 315 317 324 330 337 339 338 335 333 332 330 329 329 330 330 329 328 329
152 153 153 152 149 146 140 139 135 136 133 130 127 126 119 116 108 113 118 119 118 115 118 120 125 131 131 129 139 142 153 141 139 137 138 135 129 123 134 171 206 212 198 204 216 248 263 190 252 286 62 358 325 136 308 300 305 298 287 295 307 311 310 306 305 297 302 308 312 319 329 337 339 337 333 330 329 329 328 330 330 330 330 331 331
160 157 154 148 146 145 142 137 136 137 136 132 131 127 125 119 112 109 127 128 129 130 135 141 148 141 134 134 141 149 175 141 145 153 150 149 154 153 172 187 207 204 218 197 229 222 254 237 272 215 278 169 275 254 290 304 294 294 297 302 299 293 294 297 292 290 295 304 310 320 330 337 339 334 329 327 326 328 329 330 330 331 331 332 331
158 160 155 149 147 142 138 139 140 140 142 136 132 127 124 128 134 143 150 154 157 161 168 171 160 145 144 146 152 154 157 159 171 165 154 160 161 172 182 193 209 215 213 226 191 233 243 273 284 285 256 217 245 276 289 280 284 288 295 295 296 294 283 281 279 281 289 299 311 319 328 334 336 329 323 322 324 326 329 330 330 331 332 332 332
155 149 145 144 140 145 140 143 146 142 140 138 134 135 137 144 150 158 162 166 172 181 170 164 162 166 162 155 167 165 170 177 180 176 178 168 173 177 190 200 211 213 209 205 226 235 257 255 264 217 253 266 271 269 271 276 276 284 286 290 284 277 271 268 272 278 281 298 308 312 322 329 330 324 318 319 322 325 328 329 330 331 332 333 332
152 145 143 145 144 147 152 155 153 152 151 147 145 143 145 150 155 156 162 166 175 181 184 176 170 170 174 179 162 168 175 181 184 191 184 186 181 186 198 196 205 207 195 209 214 223 234 244 256 247 254 266 267 265 273 285 289 280 279 279 281 277 272 264 268 271 279 292 294 301 311 320 323 320 314 316 320 324 327 328 329 331 331 332 331
149 158 152 158 161 156 151 153 151 149 151 153 152 152 148 145 146 156 165 174 172 178 181 184 180 185 176 176 174 179 183 189 193 186 187 193 186 198 200 201 198 194 203 206 207 223 236 248 248 270 247 245 261 254 255 263 283 300 304 287 263 256 258 277 272 277 281 284 289 296 308 314 318 315 309 311 318 324 326 327 329 330 330 329 329
156 159 163 158 167 158 155 153 158 157 156 154 155 148 142 144 152 158 168 174 175 178 187 184 186 185 186 184 182 190 195 199 192 192 188 195 200 206 202 197 191 189 205 205 204 221 232 245 252 245 258 253 246 267 267 269 266 288 302 309 285 227 248 274 292 293 286 278 268 273 295 305 304 302 302 305 312 320 323 325 326 327 327 327 330
168 169 167 169 162 159 156 159 156 154 153 152 149 144 145 151 154 160 166 171 176 180 181 191 193 196 197 199 197 199 201 203 201 196 188 199 196 209 204 190 191 194 205 202 207 220 230 239 244 248 249 259 257 253 262 239 259 271 251 297 299 298 294 286 281 296 295 285 280 280 295 301 298 286 286 294 300 312 318 319 320 323 322 328 330
174 173 171 167 156 158 160 163 155 156 154 156 153 153 144 154 159 159 165 173 178 179 182 192 203 206 208 206 207 205 209 216 218 211 207 202 185 199 200 186 193 195 203 203 211 217 236 237 249 247 253 253 246 241 242 235 241 276 290 284 281 285 291 293 283 280 278 290 290 287 287 313 304 297 300 302 304 312 308 311 314 319 324 329 329
177 174 170 169 167 165 159 155 153 153 155 164 163 163 164 159 157 153 150 169 179 187 187 188 211 217 217 210 211 210 214 219 221 222 219 216 215 210 187 184 184 192 195 199 209 216 224 233 236 233 250 249 233 227 240 238 236 249 269 273 283 293 296 289 280 233 255 291 310 302 280 285 296 291 288 299 302 312 313 315 316 322 325 326 328
172 164 164 166 177 175 168 162 159 162 162 164 167 172 171 168 155 159 172 168 173 188 200 203 216 217 218 213 207 211 217 223 226 228 229 225 223 219 212 204 196 199 199 202 215 202 214 233 234 229 240 256 245 226 233 231 227 236 249 266 275 285 290 307 304 296 200 337 314 307 298 287 292 292 290 286 301 308 311 306 315 323 324 326 327
174 170 175 180 177 169 165 162 169 170 170 168 173 174 174 170 166 168 164 160 169 189 204 214 223 224 218 213 215 201 216 215 214 225 233 234 230 226 222 217 212 213 206 195 192 200 211 220 227 230 230 243 248 228 229 217 222 232 247 255 259 267 274 277 278 283 304 350 322 309 297 250 299 286 284 283 296 300 305 310 317 322 325 324 326
163 171 179 169 173 170 169 171 174 169 163 172 174 175 176 177 177 170 162 168 171 194 207 212 225 227 227 220 218 217 218 225 226 228 231 234 232 229 228 227 225 221 222 222 219 218 181 212 219 240 225 233 245 237 220 205 211 230 238 245 247 254 261 267 276 286 298 348 319 302 293 304 304 290 291 291 293 303 307 310 313 319 322 322 324
172 178 177 180 176 173 174 173 164 162 169 180 180 177 176 179 183 177 178 179 191 202 208 210 225 228 226 215 220 231 216 210 220 221 223 227 226 224 228 227 226 227 227 230 232 233 221 210 224 239 236 212 237 239 221 202 204 223 234 246 243 253 247 256 275 279 290 325 295 308 291 284 321 310 295 294 302 303 298 305 310 318 319 319 324
178 181 179 175 174 172 173 169 169 176 180 181 179 176 178 183 187 183 167 176 194 214 217 213 225 231 233 226 222 237 227 215 216 218 221 224 218 227 232 236 233 231 224 222 226 229 230 223 220 232 236 225 234 239 226 209 216 225 227 237 235 241 256 283 284 264 277 261 255 261 275 304 348 306 289 303 310 299 291 301 303 311 317 321 324
153 150 162 166 171 174 171 168 164 174 179 183 181 179 181 185 186 185 175 180 203 220 227 222 226 234 232 218 220 234 239 229 226 224 226 212 222 230 233 239 242 241 238 229 226 228 227 230 228 226 230 230 231 237 227 207 216 223 211 146 155 135 244 269 273 249 244 233 223 231 271 290 331 300 297 307 303 299 297 287 291 305 320 323 323
148 160 163 169 155 152 155 162 170 179 179 190 187 184 185 185 182 189 197 199 213 223 233 231 232 233 223 215 217 228 235 235 232 228 227 215 221 228 234 239 242 246 249 232 232 237 237 239 242 243 243 242 240 239 237 228 220 191 135 181 220 177 214 267 274 239 262 175 235 230 263 287 305 308 304 302 303 296 291 272 272 293 324 322 320
159 161 152 144 151 158 165 174 181 182 187 199 194 191 191 188 184 193 206 216 230 228 240 238 235 238 233 216 219 225 230 235 229 227 226 218 222 227 229 239 244 245 250 222 224 240 243 245 246 247 248 249 247 248 246 243 244 223 176 208 202 154 222 227 263 274 271 247 256 230 230 256 302 313 305 302 292 240 249 259 231 316 326 317 314
160 152 160 165 173 180 181 185 177 181 186 191 199 201 200 200 198 207 214 233 238 238 238 245 241 235 242 229 225 227 230 237 234 228 225 220 226 227 222 234 245 246 248 233 235 236 231 237 245 247 249 248 246 245 244 242 242 217 190 206 166 182 226 227 235 295 294 241 214 174 224 265 325 310 341 330 311 271 224 163 269 314 324 319 313